Regional Weather Roundup
Issued by NWS

Home | Current Version | Previous Version | Text Only | Print | Product List | Glossary Off
Versions: 1 2 3 4 5 6 7 8 9 10 11 12 13 14 15 16 17 18 19 20 21 22 23 24 25 26 27 28 29 30 31 32 33 34 35 36 37 38 39 40 41 42 43 44 45 46 47 48 49 50

962
ASUS43 KLOT 260208
RWRIL

ILLINOIS REGIONAL WEATHER ROUNDUP
NATIONAL WEATHER SERVICE CHICAGO/ROMEOVILLE IL
900 PM CDT WED MAY 25 2016

NOTE: "FAIR" INDICATES FEW OR NO CLOUDS BELOW 12,000 FEET WITH NO
SIGNIFICANT WEATHER AND/OR OBSTRUCTIONS TO VISIBILITY.

* THESE STATIONS ARE NOT UNDER NWS QUALITY CONTROL. THEY ALSO MAY NOT
  REPORT WEATHER SUCH AS PRECIPITATION OR FOG.

ILZ001-002-007-009-015-016-024-260300-
NORTHWEST ILLINOIS

CITY           SKY/WX    TMP DP  RH WIND       PRES   REMARKS
MOLINE         CLEAR     75  61  61 S3        29.88R
SAVANNA*       CLEAR     76  61  59 SW7       29.88R
$$

ILZ003-004-008-010-011-017-018-260300-
NORTH CENTRAL ILLINOIS

CITY           SKY/WX    TMP DP  RH WIND       PRES   REMARKS
ROCKFORD       MOCLDY    69  65  86 S5        29.91R
FREEPORT*      PTCLDY    70  63  80 SE8       29.91S
ROCHELLE*      PTCLDY    70  68  93 SE10      29.91R
DE KALB*       PTCLDY    67  66  96 SE8       29.92R
$$

ILZ005-006-012>014-019>023-260300-
NORTHEAST ILLINOIS

CITY           SKY/WX    TMP DP  RH WIND       PRES   REMARKS
CHICAGO-OHARE  TSTM      67  65  93 N13       29.94R
CHICAGO-MIDWAY TSTM      68  64  87 NE8       29.94R
AURORA         CLOUDY    68  65  90 SE6       29.93R
LANSING*       CLOUDY    68  64  85 N3        29.95R
JOLIET*        CLOUDY    69  67  93 NE5       29.93R
WAUKEGAN       LGT RAIN  66  64  93 S10       29.94R
DUPAGE AIRPORT CLOUDY    67  63  87 E5        29.92S
KANKAKEE*      CLOUDY   N/A N/A N/A S12       29.95R
WHEELING       TSTM      66  65  96 SE9       29.93R FOG
MORRIS*        CLOUDY    73  65  75 E3        29.91S
ROMEOVILLE*    CLOUDY    66  64  91 E7        29.94R
NORTHERLY ISL    N/A     64  61  90 NW2         N/A
NORTHERLY ISL    N/A     64  61  90 NW2         N/A
$$

LMZ740>746-260300-
SOUTHERN LAKE MICHIGAN

STATION/POSITION SKY/WX   TEMP    WIND        PRES    VSBY  WAVE
                          AIR SEA DIR/SP/G                  HT/PER
                          (F)     (DEG/KT/KT) (MB)    (MI)  (FT/S)
SOUTHERN BUOY              58 51  150/ 14/ 16 1013.4R         1
WILMETTE HARBOR            62 56  180/  6/  8   N/A           1
HARRISON CRIB              68      20/ 13/ 14   N/A
BURNHAM HARBOR             66      10/  4/  9   N/A
CALUMET HARBOR                                1012.7R
BURNS HARBOR               62     360/ 10/ 23 1014.2R
MICHIGAN CITY              67     130/  2/  3   N/A
MICHIGAN CITY 6N           62 60   50/  4/ 16   N/A           1/ 3
ST. JOSEPH                 63 60  350/ 10/ 12   N/A           2
$$

ILZ025>027-034>036-040-047-049-050-058-095>099-260300-
WEST-CENTRAL ILLINOIS

CITY           SKY/WX    TMP DP  RH WIND       PRES   REMARKS
QUINCY         CLEAR     77  63  61 S7        29.91R
GALESBURG*     CLEAR     76  64  67 S8        29.91R
MACOMB*        CLEAR     75  64  68 S6        29.93R
JACKSONVILLE*  CLEAR     77  62  59 S8        29.93R
PITTSFIELD*    CLEAR     75  66  72 S5        29.94R
$$

ILZ028>032-037-038-041>044-048-051>054-059>061-260300-
CENTRAL ILLINOIS

CITY           SKY/WX    TMP DP  RH WIND       PRES   REMARKS
PONTIAC        CLOUDY    79  66  63 S16       29.95R HX  81
BLOOMINGTON    PTCLDY    76  66  71 S13       29.96R
DECATUR        CLOUDY    76  64  66 SW13      29.96R
PEORIA         PTCLDY    77  63  61 S9        29.92R
LACON*         MOCLDY    76  64  67 S3        29.91R
LINCOLN*       CLOUDY    77  67  72 S7        29.94R
SPRINGFIELD    PTCLDY    76  66  71 S13       29.94R
TAYLORVILLE    PTCLDY    74  67  78 S13G20    29.96R
$$

ILZ033-039-045-046-055>057-062-063-260300-
EAST-CENTRAL ILLINOIS

CITY           SKY/WX    TMP DP  RH WIND       PRES   REMARKS
CHAMPAIGN      CLOUDY    73  65  75 S15       29.98R
RANTOUL*       CLOUDY    76  66  71 S14       29.98R
MATTOON        CLOUDY    72  65  78 S8        29.98R
PARIS*         CLOUDY    72  64  78 S6        30.01R
$$

ILZ079-100>102-260300-
SOUTHWEST ILLINOIS

CITY           SKY/WX    TMP DP  RH WIND       PRES   REMARKS
ALTON          CLEAR     72  66  83 S12       29.97R
BELLEVILLE     CLEAR     73  70  91 VRB2      29.97R
CAHOKIA*       CLEAR     76  65  68 S8        29.96R
SPARTA*        PTCLDY    73  68  83 S9G16     30.00R
$$

ILZ064>066-069>071-074>076-080>082-084>086-088>090-092>094-260300-
SOUTH-CENTRAL ILLINOIS

CITY           SKY/WX    TMP DP  RH WIND       PRES   REMARKS
CARBONDALE     PTCLDY    71  64  78 S10G21    30.01S
CAIRO*         CLOUDY    68  65  90 S6        30.04S
EFFINGHAM*     CLOUDY    72  68  88 SE5       30.01R
MARION         MOCLDY    72  68  88 S9        30.02S
MT. VERNON     CLOUDY    72  64  78 S8        30.01S
CENTRALIA*     MOCLDY    72  69  90 S8        29.99R
SALEM*         PTCLDY    73  67  82 S6        29.99S
METROPOLIS*    CLOUDY    70  69  98 S5        30.05R
$$

ILZ067-068-072-073-078-083-087-091-260300-
SOUTHEAST ILLINOIS

CITY           SKY/WX    TMP DP  RH WIND       PRES   REMARKS
LAWRENCEVILLE  MOCLDY    72  65  78 S13       30.02R
FLORA*         PTCLDY    73  68  86 S14G20    30.00S
FAIRFIELD*     CLOUDY    71  67  88 S8        30.01R
HARRISBURG*    CLOUDY    70  67  90 S7        30.02S
ROBINSON*      MOCLDY    69  66  90 S7        30.01S
CARMI*         CLOUDY    69  66  90 S12       30.01S
$$

ABBREVIATIONS USED IN REMARKS
   TC - TEMPERATURE IN CELSIUS
  WCI - WIND CHILL INDEX
   HX - HEAT INDEX
  VSB - VISIBILITY
$$





USA.gov is the U.S. government's official web portal to all federal, state and local government web resources and services.